Location: Nebula Knoll Observatory
(43.6666°N, 71.0000°W)
Time: 03:45:03
(UTC-04:00)

Cosmos 1782 - Pass Details

Date: 27 May 2018
Orbit: 539 x 552 km, 82.5° (Epoch: 18 August)

Event Time Altitude Azimuth Distance (km) Brightness Sun altitude
Rises 04:16:41 0° 12° (NNE) 2,735 7.3 -8.4°
Reaches altitude 10° 04:20:07 10° 43° (NE) 1,832 7.2 -7.9°
Maximum altitude 04:21:48 12° 68° (ENE) 1,685 6.7 -7.7°
Drops below altitude 10° 04:23:29 10° 93° (E) 1,823 6.3 -7.5°
Sets 04:26:52 0° 124° (ESE) 2,707 6.6 -7.0°
